Peru, IL

1:22 AM CST on November 24, 2017 (GMT -0600)
Illinois Valley Regional-Duncan

Weather History for KVYS - March, 2012

Change the Weather History Date:

Thursday, March 8, 2012

  Actual Average Record
Temperature  
Mean Temperature 43 °F -  
Max Temperature 50 °F 45 °F 74 °F (1987)
Min Temperature 36 °F 26 °F 6 °F (1982)
Degree Days  
Heating Degree Days 22    
Moisture  
Dew Point 33 °F    
Average Humidity 72    
Maximum Humidity 90    
Minimum Humidity 47    
Precipitation  
Precipitation 0.16 in - - ()
Sea Level Pressure  
Sea Level Pressure 30.08 in    
Wind  
Wind Speed 18 mph (WNW)    
Max Wind Speed 29 mph    
Max Gust Speed 36 mph    
Visibility 10 miles    
Events Rain    
Averages and records for this station are not official NWS values.
T = Trace of Precipitation, MM = Missing Value Source: NWS Daily Summary

Daily Weather History Graph

Daily Weather History Graph

Search for Another Location

Airport or City:

Trip Planner

Search our weather history database for the weather conditions in past years. The results will help you decide how hot, cold, wet, or windy it might be!

Date:

Astronomy

Mar. 08, 2012 Rise Set
Actual Time 6:19 AM CST 5:55 PM CST
Civil Twilight 5:51 AM CST 6:23 PM CST
Nautical Twilight 5:19 AM CST 6:55 PM CST
Astronomical Twilight 4:47 AM CST 7:27 PM CST
Moon 6:44 PM CST (3/8) 6:02 AM CST (3/8)
Length of Visible Light 12h 32m
Length of Day
11h 36m
Full, 100% of the Moon is Illuminated
Mar 8
Full
Mar 14
Last Quarter
Mar 22
New
Mar 30
First Quarter
Apr 6
Full

Hourly Weather History & Observations

Time (CST) Temp. Windchill Dew Point Humidity Pressure Visibility Wind Dir Wind Speed Gust Speed Precip Events Conditions
12:15 AM 50.9 °F - 47.3 °F 87% 29.86 in 5.0 mi WNW 25.3 mph 32.2 mph 0.01 in Rain Rain
12:35 AM 48.6 °F - 45.1 °F 88% 29.87 in 5.0 mi WNW 18.4 mph 26.5 mph 0.03 in Rain Rain
12:55 AM 46.6 °F - 43.3 °F 88% 29.87 in 5.0 mi WNW 20.7 mph 24.2 mph 0.09 in Rain Heavy Rain
1:15 AM 45.0 °F 37.9 °F 42.1 °F 90% 29.88 in 10.0 mi WNW 16.1 mph - 0.01 in Rain Light Rain
1:35 AM 44.6 °F 37.4 °F 41.0 °F 87% 29.91 in 10.0 mi West 16.1 mph 26.5 mph 0.01 in Rain Light Rain
1:55 AM 43.7 °F 37.7 °F 40.6 °F 89% 29.89 in 7.0 mi WNW 11.5 mph - 0.07 in Rain Rain
2:15 AM 43.2 °F 37.9 °F 40.3 °F 90% 29.90 in 10.0 mi West 9.2 mph 17.3 mph N/A   Overcast
2:35 AM 42.8 °F 35.8 °F 39.7 °F 89% 29.91 in 10.0 mi WNW 13.8 mph 23.0 mph N/A   Overcast
2:55 AM 42.3 °F 35.5 °F 39.0 °F 88% 29.92 in 10.0 mi West 12.7 mph 18.4 mph N/A   Overcast
3:15 AM 41.5 °F 33.8 °F 37.4 °F 85% 29.91 in 10.0 mi WNW 15.0 mph 24.2 mph N/A   Overcast
3:35 AM 41.5 °F 35.0 °F 37.8 °F 86% 29.94 in 10.0 mi West 11.5 mph - N/A   Overcast
3:55 AM 41.0 °F 33.9 °F 37.4 °F 87% 29.95 in 10.0 mi WNW 12.7 mph - N/A   Overcast
4:15 AM 40.3 °F 31.3 °F 36.9 °F 88% 29.96 in 10.0 mi WNW 18.4 mph 24.2 mph N/A   Overcast
4:35 AM 39.7 °F 31.2 °F 36.0 °F 86% 29.98 in 10.0 mi WNW 16.1 mph 23.0 mph N/A   Overcast
4:55 AM 39.2 °F 31.2 °F 35.6 °F 87% 29.99 in 10.0 mi WNW 13.8 mph 19.6 mph N/A   Overcast
5:15 AM 39.2 °F 30.2 °F 35.6 °F 87% 30.00 in 10.0 mi WNW 17.3 mph - N/A   Overcast
5:35 AM 38.5 °F 30.3 °F 35.1 °F 87% 30.05 in 10.0 mi West 13.8 mph 17.3 mph N/A   Overcast
5:55 AM 37.6 °F 30.0 °F 34.3 °F 88% 30.04 in 10.0 mi WNW 11.5 mph 24.2 mph N/A   Overcast
6:15 AM 37.4 °F 27.2 °F 34.0 °F 87% 30.03 in 10.0 mi WNW 19.6 mph 25.3 mph N/A   Overcast
6:35 AM 36.9 °F 26.8 °F 32.7 °F 85% 30.05 in 10.0 mi WNW 18.4 mph 27.6 mph N/A   Overcast
6:55 AM 36.5 °F 27.4 °F 32.5 °F 86% 30.05 in 10.0 mi WNW 15.0 mph - N/A   Overcast
7:15 AM 36.5 °F 27.0 °F 32.4 °F 85% 30.05 in 10.0 mi WNW 16.1 mph 21.9 mph N/A   Overcast
7:35 AM 36.5 °F 28.2 °F 32.0 °F 84% 30.07 in 10.0 mi WNW 12.7 mph - N/A   Overcast
7:55 AM 36.5 °F 27.4 °F 32.0 °F 84% 30.08 in 10.0 mi WNW 15.0 mph 21.9 mph N/A   Overcast
8:15 AM 36.5 °F 26.0 °F 31.8 °F 83% 30.07 in 10.0 mi NW 19.6 mph 25.3 mph N/A   Overcast
8:35 AM 37.4 °F 26.1 °F 32.0 °F 81% 30.08 in 10.0 mi NW 24.2 mph 27.6 mph N/A   Mostly Cloudy
8:55 AM 38.5 °F 28.1 °F 32.0 °F 78% 30.09 in 10.0 mi NW 21.9 mph 27.6 mph N/A   Mostly Cloudy
9:15 AM 39.4 °F 29.8 °F 32.2 °F 75% 30.10 in 10.0 mi WNW 19.6 mph - N/A   Scattered Clouds
9:35 AM 40.3 °F 30.4 °F 32.0 °F 72% 30.12 in 10.0 mi WNW 21.9 mph 26.5 mph N/A   Scattered Clouds
9:55 AM 39.6 °F 30.3 °F 31.8 °F 74% 30.13 in 10.0 mi WNW 18.4 mph 24.2 mph N/A   Scattered Clouds
10:15 AM 40.8 °F 32.0 °F 32.7 °F 73% 30.14 in 10.0 mi WNW 18.4 mph 24.2 mph N/A   Scattered Clouds
10:35 AM 41.5 °F 32.6 °F 31.6 °F 68% 30.16 in 10.0 mi WNW 19.6 mph 26.5 mph N/A   Scattered Clouds
10:55 AM 41.5 °F 31.6 °F 30.4 °F 65% 30.16 in 10.0 mi WNW 24.2 mph 32.2 mph N/A   Scattered Clouds
11:15 AM 40.3 °F 31.3 °F 30.2 °F 67% 30.17 in 10.0 mi WNW 18.4 mph 29.9 mph N/A   Clear
11:35 AM 41.5 °F 32.1 °F 30.9 °F 66% 30.17 in 10.0 mi WNW 21.9 mph 25.3 mph N/A   Clear
11:55 AM 40.5 °F 30.9 °F 30.0 °F 66% 30.17 in 10.0 mi WNW 20.7 mph 25.3 mph N/A   Clear
12:15 PM 41.9 °F 33.1 °F 29.8 °F 62% 30.17 in 10.0 mi WNW 19.6 mph 27.6 mph N/A   Scattered Clouds
12:35 PM 43.5 °F 34.7 °F 29.5 °F 58% 30.16 in 10.0 mi WNW 21.9 mph 33.4 mph N/A   Scattered Clouds
12:55 PM 44.6 °F 35.9 °F 29.1 °F 55% 30.16 in 10.0 mi NW 23.0 mph 28.8 mph N/A   Scattered Clouds
1:15 PM 44.8 °F 35.7 °F 27.7 °F 51% 30.17 in 10.0 mi NW 25.3 mph 29.9 mph N/A   Clear
1:35 PM 44.8 °F 35.2 °F 25.3 °F 47% 30.18 in 10.0 mi NW 28.8 mph 35.7 mph N/A   Clear
1:55 PM 45.7 °F 37.4 °F 26.2 °F 47% 30.18 in 10.0 mi NW 23.0 mph 33.4 mph N/A   Clear
2:15 PM 45.3 °F 36.1 °F 26.1 °F 47% 30.18 in 10.0 mi NW 27.6 mph 33.4 mph N/A   Clear
2:35 PM 45.7 °F 36.7 °F 26.6 °F 47% 30.19 in 10.0 mi NW 26.5 mph 34.5 mph N/A   Scattered Clouds
2:55 PM 45.5 °F 38.6 °F 27.3 °F 49% 30.19 in 10.0 mi WNW 16.1 mph 27.6 mph N/A   Scattered Clouds
3:15 PM 45.1 °F 37.9 °F 28.0 °F 51% 30.20 in 10.0 mi WNW 17.3 mph 27.6 mph N/A   Scattered Clouds
3:35 PM 44.8 °F 37.1 °F 27.1 °F 50% 30.21 in 10.0 mi WNW 18.4 mph 27.6 mph N/A   Scattered Clouds
3:55 PM 45.0 °F 37.1 °F 26.1 °F 48% 30.21 in 10.0 mi WNW 19.6 mph 27.6 mph N/A   Scattered Clouds
4:15 PM 44.6 °F 37.8 °F 26.2 °F 49% 30.21 in 10.0 mi WNW 15.0 mph 20.7 mph N/A   Scattered Clouds
4:35 PM 44.6 °F 38.1 °F 26.1 °F 48% 30.23 in 10.0 mi WNW 13.8 mph 18.4 mph N/A   Clear
4:55 PM 44.2 °F 39.2 °F 27.0 °F 51% 30.23 in 10.0 mi WNW 9.2 mph - N/A   Clear
5:15 PM 43.2 °F 37.0 °F 26.2 °F 51% 30.23 in 10.0 mi West 11.5 mph - N/A   Clear
5:35 PM 42.1 °F 35.7 °F 27.9 °F 57% 30.23 in 10.0 mi West 11.5 mph - N/A   Clear
5:55 PM 41.5 °F 35.0 °F 27.3 °F 57% 30.24 in 10.0 mi West 11.5 mph - N/A   Clear
6:15 PM 40.1 °F 33.6 °F 27.9 °F 62% 30.25 in 10.0 mi West 10.4 mph - N/A   Clear
6:35 PM 39.2 °F 32.5 °F 27.9 °F 64% 30.25 in 10.0 mi West 10.4 mph - N/A   Clear
6:55 PM 39.0 °F 32.3 °F 27.5 °F 63% 30.25 in 10.0 mi West 10.4 mph - N/A   Clear
7:15 PM 39.2 °F 33.0 °F 27.3 °F 62% 30.25 in 10.0 mi West 9.2 mph - N/A   Clear
7:35 PM 38.5 °F 32.1 °F 26.8 °F 63% 30.25 in 10.0 mi West 9.2 mph - N/A   Clear
7:55 PM 37.4 °F 30.8 °F 26.6 °F 65% 30.25 in 10.0 mi WSW 9.2 mph - N/A   Clear
8:15 PM 39.2 °F 32.5 °F 26.6 °F 61% 30.25 in 10.0 mi West 10.4 mph - N/A   Clear
8:35 PM 38.5 °F 31.6 °F 27.0 °F 63% 30.26 in 10.0 mi West 10.4 mph - N/A   Clear
8:55 PM 37.9 °F 30.5 °F 27.0 °F 65% 30.26 in 10.0 mi West 11.5 mph - N/A   Clear
9:15 PM 38.5 °F 30.3 °F 27.1 °F 64% 30.27 in 10.0 mi West 13.8 mph - N/A   Clear
9:35 PM 38.8 °F 31.2 °F 27.1 °F 63% 30.27 in 10.0 mi West 12.7 mph - N/A   Clear
9:55 PM 38.3 °F 30.1 °F 26.6 °F 63% 30.27 in 10.0 mi West 13.8 mph - N/A   Clear
10:15 PM 38.8 °F 30.8 °F 26.6 °F 61% 30.27 in 10.0 mi West 13.8 mph - N/A   Clear
10:35 PM 38.8 °F 30.4 °F 26.4 °F 61% 30.26 in 10.0 mi WSW 15.0 mph - N/A   Clear
10:55 PM 39.2 °F 31.2 °F 26.1 °F 59% 30.26 in 10.0 mi WSW 13.8 mph - N/A   Clear
11:15 PM 39.4 °F 31.1 °F 25.9 °F 58% 30.25 in 10.0 mi WSW 15.0 mph - N/A   Clear
11:35 PM 40.3 °F 31.3 °F 25.5 °F 56% 30.26 in 10.0 mi WSW 18.4 mph 24.2 mph N/A   Clear
11:55 PM 40.8 °F 32.6 °F 25.5 °F 55% 30.25 in 10.0 mi WSW 16.1 mph 23.0 mph N/A   Clear